CZ-6A DEB, 56606

Orbit data source: Space-Track

CZ-6A DEB, 56606 is space debris in SSO originally from a launch on Fri, 11 Nov 2022 UTC launched from the Taiyaun Space Center, China (TSC). Debris objects in space refer to the collection of defunct objects orbiting the Earth. Examples of debris include non-operational satellites, rocket bodies, and fragments generated from explosions, collisions, or faulty payload assembly.

Loading next visibility...
Identifier
56606, 2022-151AEE
Orbit
SSO
Country
Flag of CNCN / PRC
Related business
Manufacturer
SAST
Mission
Spacecraft
Bus & Motor
Unknown
Mass
Unknown
Launch date (UTC)
2022-11-11 (4 years ago)
Launch vehicle
Unknown
Launch site
Taiyaun Space Center, China (TSC)
Object type
Payload
Rocket body
Debris
Shape & HBR
Unknown shape, 0.1 m
Radar Cross Section
Small (<0.1 m²)

Expand to show TLE details & history
Last TLE update: 1 day ago

TLE from 1 day ago
0 CZ-6A DEB
1 56606U 22151AEE 26234.74045784  .00000010  00000-0  30009-4 0  9997
2 56606  98.8501 233.1503 0046513 151.2894 209.0851 14.09502005171192
Epoch: 2026-08-22T17:46Z
TLE epoch observation values (Epoch: 2026-08-22T17:46:15.557Z)
Latitude
-0.00004°
Longitude
-4.46104°
Altitude
893.44 km
Speed
7.39 km/s
True Right ascension
15h 32m 36s
True Declination
0° 00' 00"
Sunlit
Object was in daylight at epoch
Visualization orbit readout
Latitude
Unknown
Longitude
Unknown
Altitude
Unknown
Speed
Unknown
Apparent Right ascension
Unknown
Apparent Declination
Unknown
Sunlit
N/A
Visualization observer readout
Local Sidereal Time
20:46:29
Azimuth
Unknown
Elevation
Unknown
Doppler factor
Unknown
Orbital elements
Apogee altitude
891.914 km
Perigee altitude
824.597 km
Semi-major axis
7,236.393 km
Eccentricity
0.00465
Inclination
98.8501°
RAAN
233.1503°
Arg. of periapsis
151.2894°
True anomaly
208.82732°
Mean anomaly
209.0851°
Eccentric anomaly
208.95608°
Mean motion
3.52582 °/min
Orbital period
102.1 mins
BSTAR
0.000030009
Loading maneuver chart data...
Computing Atmospheric mass density...
Loading historical data...
Loading historical data...
Loading historical data...
Loading historical data...
Loading historical data...
Loading historical data...
Loading historical data...

Documentation

Showing up to 5 results
|